Harrisburg, IL

3:16 AM CST on December 07, 2019 (GMT -0600)
Harrisburg-Raleigh

Weather History for KHSB - October, 2019

Change the Weather History Date:

Friday, October 4, 2019

  Actual Average (WUND) Record (WUND)
Temperature  
Mean Temperature 62 °F -  
Max Temperature 74 °F - - (-1)
Min Temperature 51 °F - - (-1)
Degree Days  
Heating Degree Days 2    
Growing Degree Days 12 (Base 50)    
Moisture  
Dew Point 44 °F    
Average Humidity 56    
Maximum Humidity 87    
Minimum Humidity 26    
Precipitation  
Precipitation 0.00 in - - ()
Sea Level Pressure  
Sea Level Pressure 30.24 in    
Wind  
Wind Speed 7 mph ()    
Max Wind Speed 12 mph    
Max Gust Speed 17 mph    
Visibility 9.9 miles    
Events      
Averages and records for this station are not official NWS values.
T = Trace of Precipitation, MM = Missing Value Source: Averaged Metar Reports

Daily Weather History Graph

Daily Weather History Graph

Search for Another Location

Airport or City:

Astronomy

Oct. 04, 2019 Rise Set
Actual Time 6:52 AM CDT 6:33 PM CDT
Civil Twilight 6:26 AM CDT 6:59 PM CDT
Nautical Twilight 5:55 AM CDT 7:29 PM CDT
Astronomical Twilight 5:25 AM CDT 8:00 PM CDT
Moon 1:18 PM CDT (10/4) 11:07 PM CDT (10/4)
Length of Visible Light 12h 33m
Length of Day
11h 40m
Waxing Crescent, 40% of the Moon is Illuminated
Oct 4
Waxing Crescent
Oct 5
First Quarter
Oct 13
Full
Oct 21
Last Quarter
Oct 27
New

Hourly Weather History & Observations

Time (CDT) Temp. Dew Point Humidity Pressure Visibility Wind Dir Wind Speed Gust Speed Precip Events Conditions
12:15 AM 59.5 °F 50.0 °F 71% 30.23 in 10.0 mi North 8.1 mph - N/A   Clear
12:35 AM 59.0 °F 50.0 °F 72% 30.24 in 10.0 mi North 8.1 mph - N/A   Clear
12:55 AM 58.3 °F 50.0 °F 74% 30.24 in 10.0 mi North 6.9 mph - N/A   Clear
1:15 AM 58.1 °F 50.0 °F 74% 30.24 in 10.0 mi NNW 8.1 mph - N/A   Scattered Clouds
1:35 AM 57.2 °F 49.8 °F 76% 30.25 in 10.0 mi North 6.9 mph - N/A   Mostly Cloudy
1:55 AM 56.7 °F 49.6 °F 77% 30.25 in 10.0 mi North 8.1 mph - N/A   Scattered Clouds
2:15 AM 56.3 °F 49.5 °F 78% 30.24 in 10.0 mi North 6.9 mph - N/A   Clear
2:35 AM 55.8 °F 49.5 °F 79% 30.25 in 10.0 mi North 6.9 mph - N/A   Clear
2:55 AM 55.4 °F 49.1 °F 79% 30.25 in 10.0 mi North 6.9 mph - N/A   Clear
3:15 AM 55.0 °F 49.1 °F 80% 30.24 in 10.0 mi North 5.8 mph - N/A   Clear
3:35 AM 54.9 °F 48.7 °F 80% 30.25 in 10.0 mi NNE 3.5 mph - N/A   Clear
3:55 AM 54.5 °F 48.6 °F 80% 30.25 in 10.0 mi North 6.9 mph - N/A   Clear
4:15 AM 53.8 °F 48.6 °F 82% 30.26 in 10.0 mi North 4.6 mph - N/A   Clear
4:35 AM 52.9 °F 48.4 °F 85% 30.26 in 10.0 mi North 4.6 mph - N/A   Clear
4:55 AM 52.7 °F 48.6 °F 86% 30.27 in 10.0 mi North 5.8 mph - N/A   Clear
5:15 AM 52.7 °F 48.4 °F 85% 30.27 in 10.0 mi North 4.6 mph - N/A   Clear
5:35 AM 52.5 °F 48.2 °F 85% 30.27 in 10.0 mi North 5.8 mph - N/A   Clear
5:55 AM 52.2 °F 48.2 °F 86% 30.27 in 10.0 mi North 5.8 mph - N/A   Clear
6:15 AM 51.8 °F 47.7 °F 86% 30.28 in 10.0 mi North 5.8 mph - N/A   Clear
6:35 AM 51.8 °F 47.7 °F 86% 30.29 in 10.0 mi North 4.6 mph - N/A   Clear
6:55 AM 51.3 °F 47.5 °F 87% 30.29 in 10.0 mi North 5.8 mph - N/A   Clear
7:15 AM 51.8 °F 47.3 °F 85% 30.29 in 10.0 mi North 4.6 mph - N/A   Clear
7:35 AM 52.2 °F 47.5 °F 84% 30.29 in 10.0 mi North 5.8 mph - N/A   Clear
7:55 AM 53.1 °F 47.7 °F 82% 30.30 in 10.0 mi NNE 5.8 mph - N/A   Clear
8:15 AM 54.5 °F 47.7 °F 78% 30.30 in 10.0 mi NNE 9.2 mph - N/A   Clear
8:35 AM 55.4 °F 47.3 °F 74% 30.30 in 10.0 mi NNE 10.4 mph 16.1 mph N/A   Clear
8:55 AM 56.8 °F 47.7 °F 71% 30.31 in 10.0 mi NNE 11.5 mph - N/A   Clear
9:15 AM 58.3 °F 47.5 °F 67% 30.30 in 10.0 mi NE 9.2 mph - N/A   Clear
9:35 AM 60.1 °F 47.5 °F 63% 30.31 in 10.0 mi NE 10.4 mph - N/A   Clear
9:55 AM 61.2 °F 47.5 °F 61% 30.31 in 10.0 mi NE 8.1 mph 17.3 mph N/A   Clear
10:15 AM 63.3 °F 47.3 °F 56% 30.30 in 10.0 mi NE 11.5 mph - N/A   Clear
10:35 AM 64.2 °F 47.3 °F 54% 30.30 in 10.0 mi NE 10.4 mph - N/A   Clear
10:55 AM 65.8 °F 46.8 °F 50% 30.29 in 10.0 mi ENE 9.2 mph - N/A   Clear
11:15 AM 66.4 °F 46.6 °F 49% 30.29 in 10.0 mi ENE 10.4 mph 16.1 mph N/A   Clear
11:35 AM 67.5 °F 46.6 °F 47% 30.29 in 10.0 mi NE 10.4 mph - N/A   Clear
11:55 AM 68.4 °F 46.4 °F 45% 30.28 in 10.0 mi NNE 8.1 mph - N/A   Clear
12:15 PM 69.6 °F 46.2 °F 43% 30.28 in 10.0 mi NNE 9.2 mph - N/A   Clear
12:35 PM 70.2 °F 45.3 °F 41% 30.27 in 7.0 mi North 10.4 mph 16.1 mph N/A   Clear
12:55 PM 70.5 °F 45.0 °F 40% 30.27 in 10.0 mi NE 5.8 mph - N/A   Clear
1:15 PM 71.2 °F 44.4 °F 38% 30.26 in 10.0 mi NE 10.4 mph 17.3 mph N/A   Clear
1:35 PM 72.0 °F 43.7 °F 36% 30.25 in 10.0 mi NE 10.4 mph - N/A   Clear
1:55 PM 72.1 °F 41.4 °F 33% 30.24 in 10.0 mi NE 9.2 mph - N/A   Clear
2:15 PM 73.4 °F 41.4 °F 31% 30.23 in 10.0 mi NNE 10.4 mph 17.3 mph N/A   Clear
2:35 PM 74.1 °F 40.1 °F 29% 30.22 in 10.0 mi NNE 9.2 mph - N/A   Clear
2:55 PM 73.8 °F 39.4 °F 29% 30.22 in 10.0 mi NNE 9.2 mph 16.1 mph N/A   Clear
3:15 PM 73.6 °F 39.4 °F 29% 30.22 in 10.0 mi NE 9.2 mph - N/A   Clear
3:35 PM 73.9 °F 37.9 °F 27% 30.21 in 10.0 mi ENE 10.4 mph - N/A   Clear
3:55 PM 74.5 °F 37.0 °F 26% 30.20 in 10.0 mi NNE 10.4 mph - N/A   Clear
4:15 PM 73.6 °F 37.6 °F 27% 30.20 in 10.0 mi NE 9.2 mph - N/A   Clear
4:35 PM 73.8 °F 38.3 °F 28% 30.20 in 10.0 mi NNE 6.9 mph - N/A   Clear
4:55 PM 73.6 °F 38.1 °F 28% 30.20 in 10.0 mi NNE 10.4 mph - N/A   Clear
5:15 PM 72.9 °F 37.4 °F 28% 30.20 in 10.0 mi ENE 8.1 mph - N/A   Clear
5:35 PM 72.5 °F 36.7 °F 27% 30.20 in 10.0 mi NE 8.1 mph - N/A   Clear
5:55 PM 71.4 °F 37.2 °F 29% 30.20 in 7.0 mi NNE 8.1 mph - N/A   Clear
6:15 PM 70.3 °F 35.2 °F 28% 30.20 in 10.0 mi NE 5.8 mph - N/A   Clear
6:35 PM 68.7 °F 36.1 °F 30% 30.20 in 10.0 mi NE 5.8 mph - N/A   Clear
6:55 PM 66.4 °F 37.9 °F 35% 30.20 in 10.0 mi NNE 4.6 mph - N/A   Clear
7:15 PM 63.9 °F 38.8 °F 40% 30.20 in 10.0 mi Calm Calm - N/A   Clear
7:35 PM 63.5 °F 39.9 °F 42% 30.20 in 10.0 mi Calm Calm - N/A   Clear
7:55 PM 63.0 °F 41.0 °F 45% 30.20 in 10.0 mi NNE 4.6 mph - N/A   Clear
8:15 PM 62.4 °F 41.0 °F 45% 30.21 in 10.0 mi North 4.6 mph - N/A   Clear
8:35 PM 61.0 °F 41.7 °F 49% 30.21 in 10.0 mi NNE 4.6 mph - N/A   Clear
8:55 PM 60.8 °F 42.4 °F 51% 30.21 in 10.0 mi NNE 5.8 mph - N/A   Clear
9:15 PM 61.2 °F 42.3 °F 50% 30.22 in 10.0 mi NNE 4.6 mph - N/A   Clear
9:35 PM 60.8 °F 42.8 °F 52% 30.22 in 10.0 mi NNE 5.8 mph - N/A   Clear
9:55 PM 61.3 °F 42.4 °F 50% 30.22 in 10.0 mi NNE 5.8 mph - N/A   Clear
10:15 PM 61.7 °F 41.9 °F 48% 30.21 in 10.0 mi NE 5.8 mph - N/A   Clear
10:35 PM 60.8 °F 42.8 °F 52% 30.21 in 10.0 mi NNE 5.8 mph - N/A   Clear
10:55 PM 61.0 °F 42.4 °F 51% 30.20 in 10.0 mi NE 5.8 mph - N/A   Clear
11:15 PM 61.0 °F 42.6 °F 51% 30.19 in 10.0 mi NE 5.8 mph - N/A   Clear
11:35 PM 60.4 °F 42.8 °F 52% 30.19 in 10.0 mi NE 4.6 mph - N/A   Clear
11:55 PM 58.8 °F 44.1 °F 58% 30.19 in 7.0 mi NE 3.5 mph - N/A   Clear